Location: *
(38.8181°S, 103.0319°E)
Time: 13:57:20
(UTC+00:00)

Daily predictions for brighter satellites

Satellite Brightness Start Highest point End
(mag) Time Altitude Azimuth Time Altitude Azimuth Time Altitude Azimuth
Cosmos 1844 3.6 12:00:05 10° SSW 12:05:43 83° WNW 12:11:20 10° NNE
NOAA 12 4.4 12:10:16 50° NNE 12:10:16 50° NNE 12:14:23 10° N
CZ-4 R/B 2.4 12:19:15 46° WSW 12:19:28 46° WSW 12:23:24 10° NW
ATLAS 5 CENTAUR R/B 2.0 12:15:41 10° SW 12:20:36 69° W 12:20:36 69° W
ALOS 3.1 12:21:18 37° SSW 12:22:42 49° WSW 12:27:12 10° NNW
NOSS 3-4 (A) 4.3 12:24:28 10° SW 12:31:09 51° WNW 12:37:19 10° N
NOSS 3-4 (C) 4.3 12:24:36 10° SW 12:31:16 51° WNW 12:37:25 10° N
YAOGAN 1 3.9 12:32:53 37° NW 12:32:53 37° NW 12:35:44 10° NNW
Cosmos 839 Rocket 4.3 12:34:22 10° NNW 12:43:10 86° ENE 12:43:28 83° ESE
Cosmos 1980 4.3 12:41:43 10° NNW 12:46:08 52° WNW 12:46:08 52° WNW
Cosmos 2237 Rocket 3.3 12:51:44 10° NW 12:55:30 41° WNW 12:55:30 41° WNW
Cosmos 2219 Rocket 3.9 12:58:51 10° WNW 13:03:36 26° WSW 13:04:23 26° SW
USA 267 4.4 13:09:43 34° SSW 13:09:43 34° SSW 13:15:28 10° W
CZ-4C R/B 4.1 13:07:04 10° WNW 13:13:50 31° SW 13:15:08 29° SSW
Cosmos 2333 Rocket 4.2 20:53:52 23° E 20:53:52 23° E 20:56:34 10° ENE
COSMOS 2455 4.3 21:09:10 31° ESE 21:09:10 31° ESE 21:12:28 10° SE
Hubble Space Telescope 3.7 21:32:06 12° NE 21:32:06 12° NE 21:32:40 10° NE
Cosmos 2297 Rocket 3.6 21:27:56 10° N 21:33:03 36° ENE 21:38:13 10° SE
Radarsat Rocket 4.5 21:34:20 10° NNE 21:38:29 50° NNE 21:38:29 50° NNE
Cosmos 2227 Rocket 3.0 21:37:10 14° N 21:41:51 48° ENE 21:47:18 10° SE
SL-16 R/B 4.4 21:43:11 12° S 21:46:53 20° SE 21:51:01 10° E
Cosmos 2237 Rocket 2.8 21:51:06 40° SSE 21:52:39 52° ESE 21:58:08 10° NE
Cosmos 2219 Rocket 2.6 21:59:28 51° NNW 21:59:28 51° NNW 22:03:46 10° N
Cosmos 2233 Rocket 3.9 22:03:34 10° N 22:09:47 90° WSW 22:16:02 10° S
BREEZE-M DEB (TANK) 3.4 22:10:31 61° WSW 22:11:28 79° NW 22:21:38 10° NE
MOS 1-B Rocket 4.2 22:11:48 10° NNE 22:17:54 86° ESE 22:25:06 10° SSW
Cosmos 2082 3.8 22:12:58 10° NNW 22:18:35 74° ENE 22:24:16 10° SSE
Cosmos 1455 Rocket 3.1 22:19:03 45° S 22:20:19 75° E 22:24:40 10° NNE
NOSS 0 Rocket 3.8 22:18:55 48° SW 22:20:36 69° WNW 22:26:45 10° NNE
USA 229 DEB 3.9 22:22:56 10° NNW 22:30:24 85° ENE 22:37:46 10° SE
USA 229 3.9 22:23:03 10° NNW 22:30:31 84° ENE 22:37:53 10° SE
Cosmos 773 Rocket 4.0 22:27:39 10° NNW 22:32:57 87° ENE 22:38:15 10° SSE
Cosmos 1356 Rocket 4.1 22:30:04 10° N 22:34:01 55° E 22:38:07 10° SSE
COSMOS 2428 4.3 22:38:05 18° NW 22:38:05 18° NW 22:40:08 10° NNW
Cosmos 2333 Rocket 2.8 22:35:57 36° WNW 22:35:57 36° WNW 22:40:56 10° N
CORIOLIS 4.5 22:31:49 10° NNE 22:37:12 68° ESE 22:42:38 10° S
Cosmos 1515 3.6 22:36:15 10° NNW 22:40:06 70° W 22:44:02 10° S
Meteor 1-23 Rocket 4.2 22:35:30 10° N 22:41:19 90° E 22:47:09 10° S
COSMO-SKYMED 1 4.2 22:40:03 10° SSE 22:44:07 36° E 22:48:08 10° NNE
IRIS 4.3 22:47:15 57° WNW 22:47:42 67° NNW 22:50:25 10° ENE
CSL-04 Rocket 3.8 22:43:40 10° NNE 22:49:06 79° ESE 22:54:41 10° S
Cosmos 1544 Rocket 3.7 22:50:11 33° SW 22:51:41 47° W 22:55:53 10° NNW
COSMOS 2455 3.7 22:52:23 27° WSW 22:52:50 28° SW 22:57:57 10° S
FENGYUN 3A 3.8 22:56:01 10° NNE 23:01:24 75° ESE 23:06:51 10° S
CZ-4 R/B 1.5 23:00:27 10° NNE 23:04:38 88° E 23:08:57 10° SSW
Cosmos 1484 Rocket 4.2 23:01:51 10° NNW 23:04:06 21° WNW 23:04:06 21° WNW
Hubble Space Telescope 3.1 23:07:41 10° NW 23:10:13 16° NNW 23:12:45 10° NNE
Cosmos 1513 Rocket 4.4 23:07:14 10° NNW 23:13:24 75° W 23:19:35 10° S
CZ-4 R/B 4.5 23:10:46 10° NNE 23:14:55 84° ESE 23:19:07 10° S
Cosmos 2297 Rocket 2.9 23:12:06 10° WNW 23:17:05 31° WSW 23:22:08 10° S
Ariane Rocket 2.9 23:12:08 10° N 23:17:13 78° WNW 23:22:22 10° SSW
Cosmos 1536 Rocket 4.1 23:13:21 10° NW 23:17:21 35° WSW 23:21:26 10° S
Cosmos 1680 Rocket 3.6 23:16:20 10° NNW 23:21:40 85° ENE 23:27:02 10° SSE
YAOGAN 1 2.5 23:19:58 10° N 23:24:20 80° WNW 23:28:45 10° SSW
ALOS 2.3 23:19:58 10° N 23:24:34 59° W 23:29:16 10° SSW
Cosmos 2227 Rocket 3.2 23:21:36 10° WNW 23:26:08 24° SW 23:30:43 10° S
NOAA 12 4.2 23:22:31 10° NNE 23:27:49 83° ESE 23:33:09 10° SSW
MONITOR-E 4.5 23:27:32 10° NNE 23:30:32 67° ESE 23:33:37 10° S
SL-16 R/B 2.3 23:25:49 10° SSW 23:31:27 61° WNW 23:37:01 10° N
SKYMED 2 3.6 23:27:47 10° S 23:32:10 64° WSW 23:36:29 10° NNW
Centaur D AC-29 4.2 23:31:11 10° NNW 23:32:29 11° N 23:33:35 10° NNE
Genesis I 4.5 23:30:38 13° W 23:32:53 21° SW 23:35:50 10° S
Cosmos 923 Rocket 4.1 23:27:43 10° NNW 23:32:59 58° WSW 23:38:20 10° S
H-2A R/B 3.1 23:30:27 10° NNE 23:34:13 67° ESE 23:38:06 10° S
Cosmos 2112 Rocket 4.0 23:29:41 10° NNW 23:35:03 86° WSW 23:40:27 10° SSE
USA 116 4.2 23:31:58 10° S 23:35:29 39° WSW 23:39:23 10° NW
Cosmos 2237 Rocket 3.5 23:32:58 13° WSW 23:36:15 20° W 23:40:17 10° NW
SMAP 4.2 23:34:13 10° NNW 23:37:57 23° W 23:41:43 10° SW
Okean 2 4.2 23:37:33 10° NW 23:41:12 29° WSW 23:44:53 10° SSW
Okean 1-7 Rocket 3.6 23:37:10 10° N 23:41:41 83° W 23:46:20 10° S
Cosmos 1464 Rocket 4.5 23:38:36 10° NW 23:44:20 38° WSW 23:50:12 10° S
Cosmos 1025 Rocket 3.6 23:41:37 10° NW 23:45:36 36° WSW 23:49:38 10° S
NOSS 3-1 (C) 4.2 23:38:14 10° NW 23:46:36 57° SW 23:54:09 10° SSE
Meteor 1-22 Rocket 4.4 23:44:18 10° S 23:50:22 88° E 23:56:08 10° N
Cosmos 2263 Rocket 3.5 23:48:42 10° N 23:54:00 47° ENE 23:59:22 10° SE
